| time (UTC) | temp F | wind direction | speed MPH | gust MPH | rain 1hr in | rain 24hr in | rain mn in | humidity % | barometer mb |
| 20260504050721 | 41 | 69 | 0.0 | 0.0 | 0.00 | 0.00 | 0.00 | 86 | 1014.6 |
| 20260504050218 | 41 | 69 | 0.0 | 0.0 | 0.00 | 0.00 | 0.00 | 85 | 1014.6 |
| 20260504045715 | 41 | 69 | 0.0 | 0.0 | 0.00 | 0.00 | 0.00 | 86 | 1014.7 |
| 20260504045210 | 41 | 69 | 0.0 | 0.0 | 0.00 | 0.00 | 0.00 | 84 | 1014.5 |
| 20260504044708 | 40 | 69 | 0.0 | 0.0 | 0.00 | 0.00 | 0.00 | 85 | 1014.7 |
| 20260504044205 | 40 | 69 | 0.0 | 0.0 | 0.00 | 0.00 | 0.00 | 87 | 1014.7 |
| 20260504043702 | 40 | 69 | 0.0 | 0.0 | 0.00 | 0.00 | 0.00 | 86 | 1014.6 |
| 20260504043158 | 40 | 69 | 0.0 | 0.0 | 0.00 | 0.00 | 0.00 | 85 | 1014.8 |
| 20260504042656 | 40 | 69 | 0.0 | 0.0 | 0.00 | 0.00 | 0.00 | 84 | 1014.6 |
| 20260504042152 | 40 | 69 | 0.0 | 0.0 | 0.00 | 0.00 | 0.00 | 85 | 1014.6 |
| 20260504041648 | 39 | 69 | 0.0 | 0.0 | 0.00 | 0.00 | 0.00 | 86 | 1014.8 |
| 20260504041144 | 39 | 68 | 0.0 | 0.0 | 0.00 | 0.00 | 0.00 | 87 | 1014.6 |
| 20260504040642 | 39 | 68 | 0.0 | 0.0 | 0.00 | 0.00 | 0.00 | 86 | 1014.5 |
| 20260504040139 | 39 | 66 | 0.0 | 0.0 | 0.00 | 0.00 | 0.00 | 87 | 1014.5 |
| 20260504035635 | 39 | 65 | 0.0 | 0.0 | 0.00 | 0.00 | 0.00 | 87 | 1014.5 |
| 20260504035132 | 38 | 65 | 0.0 | 0.0 | 0.00 | 0.00 | 0.00 | 87 | 1014.5 |
| 20260504034630 | 38 | 66 | 0.0 | 0.0 | 0.00 | 0.00 | 0.00 | 88 | 1014.3 |
| 20260504034126 | 38 | 64 | 0.0 | 0.0 | 0.00 | 0.00 | 0.00 | 87 | 1014.3 |
| 20260504033624 | 37 | 64 | 0.0 | 0.0 | 0.00 | 0.00 | 0.00 | 88 | 1014.6 |
| 20260504033121 | 37 | 64 | 0.0 | 0.0 | 0.00 | 0.00 | 0.00 | 89 | 1014.5 |
| 20260504032618 | 36 | 64 | 0.0 | 0.0 | 0.00 | 0.00 | 0.00 | 89 | 1014.5 |
| 20260504032115 | 36 | 64 | 0.0 | 0.0 | 0.00 | 0.00 | 0.00 | 88 | 1014.3 |
| 20260504031612 | 36 | 64 | 0.0 | 0.0 | 0.00 | 0.00 | 0.00 | 88 | 1014.5 |
| 20260504031108 | 36 | 64 | 0.0 | 0.0 | 0.00 | 0.00 | 0.00 | 88 | 1014.5 |
| 20260504030605 | 36 | 62 | 0.0 | 0.0 | 0.00 | 0.00 | 0.00 | 87 | 1014.5 |
| 20260504025559 | 37 | 62 | 0.0 | 0.0 | 0.00 | 0.00 | 0.00 | 87 | 1014.2 |
| 20260504025056 | 37 | 62 | 0.0 | 0.0 | 0.00 | 0.00 | 0.00 | 87 | 1014.3 |
| 20260504024553 | 37 | 62 | 0.0 | 0.0 | 0.00 | 0.00 | 0.00 | 86 | 1014.2 |
| 20260504024050 | 37 | 62 | 0.0 | 0.0 | 0.00 | 0.00 | 0.00 | 85 | 1014.3 |
| 20260504023546 | 37 | 62 | 0.0 | 0.0 | 0.00 | 0.00 | 0.00 | 85 | 1014.5 |
| 20260504023042 | 37 | 62 | 0.0 | 0.0 | 0.00 | 0.00 | 0.00 | 85 | 1014.3 |
| 20260504022538 | 37 | 59 | 0.0 | 0.0 | 0.00 | 0.00 | 0.00 | 86 | 1014.2 |
| 20260504022035 | 38 | 57 | 0.0 | 0.0 | 0.00 | 0.00 | 0.00 | 86 | 1014.5 |
| 20260504021532 | 38 | 57 | 0.0 | 0.0 | 0.00 | 0.00 | 0.00 | 85 | 1014.3 |
| 20260504021029 | 38 | 58 | 0.0 | 0.0 | 0.00 | 0.00 | 0.00 | 85 | 1014.4 |
| 20260504020526 | 38 | 55 | 0.0 | 0.0 | 0.00 | 0.00 | 0.00 | 84 | 1014.5 |
| 20260504020022 | 38 | 55 | 0.0 | 0.0 | 0.00 | 0.00 | 0.00 | 84 | 1014.6 |
| 20260504015519 | 38 | 53 | 0.0 | 0.0 | 0.00 | 0.00 | 0.00 | 84 | 1014.5 |
| 20260504015015 | 39 | 49 | 0.0 | 0.0 | 0.00 | 0.00 | 0.00 | 83 | 1014.6 |
| 20260504014511 | 39 | 49 | 0.0 | 0.0 | 0.00 | 0.00 | 0.00 | 84 | 1014.4 |
| 20260504014008 | 39 | 48 | 0.0 | 0.0 | 0.00 | 0.00 | 0.00 | 83 | 1014.4 |
| 20260504013506 | 39 | 46 | 0.0 | 0.0 | 0.00 | 0.00 | 0.00 | 83 | 1014.3 |
| 20260504013003 | 39 | 23 | 0.0 | 0.0 | 0.00 | 0.00 | 0.00 | 82 | 1014.3 |
| 20260504012500 | 40 | 23 | 0.0 | 0.0 | 0.00 | 0.00 | 0.00 | 82 | 1014.2 |
| 20260504011958 | 40 | 23 | 0.0 | 0.0 | 0.00 | 0.00 | 0.00 | 82 | 1014.3 |
| 20260504011454 | 40 | 23 | 0.0 | 0.0 | 0.00 | 0.00 | 0.00 | 79 | 1013.9 |
| 20260504010950 | 40 | 23 | 0.0 | 0.0 | 0.00 | 0.00 | 0.00 | 79 | 1013.9 |
| 20260504010446 | 40 | 23 | 0.0 | 0.0 | 0.00 | 0.00 | 0.00 | 81 | 1014.0 |
| 20260504005942 | 41 | 23 | 0.0 | 0.0 | 0.00 | 0.00 | 0.00 | 81 | 1014.0 |
| 20260504005439 | 41 | 22 | 0.0 | 0.0 | 0.00 | 0.00 | 0.00 | 78 | 1013.9 |
| 20260504004937 | 42 | 22 | 0.0 | 0.0 | 0.00 | 0.00 | 0.00 | 78 | 1013.8 |
| 20260504004434 | 42 | 22 | 0.0 | 0.0 | 0.00 | 0.00 | 0.00 | 74 | 1013.6 |
| 20260504003931 | 43 | 22 | 0.0 | 0.0 | 0.00 | 0.00 | 0.00 | 74 | 1013.5 |
| 20260504003427 | 44 | 22 | 0.0 | 0.0 | 0.00 | 0.00 | 0.00 | 75 | 1013.6 |
| 20260504002924 | 45 | 22 | 0.0 | 0.0 | 0.00 | 0.00 | 0.00 | 69 | 1013.7 |
| 20260504002421 | 45 | 22 | 0.0 | 0.0 | 0.00 | 0.00 | 0.00 | 75 | 1013.5 |
| 20260504001919 | 46 | 22 | 0.0 | 0.0 | 0.00 | 0.00 | 0.00 | 70 | 1013.6 |
| 20260504001416 | 46 | 22 | 0.0 | 0.0 | 0.00 | 0.00 | 0.00 | 70 | 1013.5 |
| 20260504000912 | 46 | 22 | 0.0 | 0.0 | 0.00 | 0.00 | 0.00 | 67 | 1013.4 |
| 20260504000410 | 46 | 22 | 0.0 | 0.0 | 0.00 | 0.00 | 0.00 | 67 | 1013.3 |
| 20260503235907 | 46 | 22 | 0.0 | 0.0 | 0.00 | 0.00 | 0.00 | 68 | 1013.4 |
| 20260503235405 | 47 | 22 | 0.0 | 0.0 | 0.00 | 0.00 | 0.00 | 68 | 1013.1 |
| 20260503234902 | 48 | 22 | 0.0 | 0.0 | 0.00 | 0.00 | 0.00 | 67 | 1013.1 |
| 20260503234359 | 49 | 22 | 0.0 | 0.0 | 0.00 | 0.00 | 0.00 | 56 | 1013.0 |
| 20260503233857 | 50 | 25 | 0.0 | 0.0 | 0.00 | 0.00 | 0.00 | 53 | 1013.0 |
| 20260503233353 | 50 | 25 | 0.0 | 0.0 | 0.00 | 0.00 | 0.00 | 47 | 1012.8 |
| 20260503232850 | 51 | 56 | 0.0 | 1.0 | 0.00 | 0.00 | 0.00 | 47 | 1012.8 |
| 20260503232347 | 52 | 24 | 0.0 | 0.0 | 0.00 | 0.00 | 0.00 | 44 | 1012.7 |
| 20260503231845 | 52 | 359 | 0.0 | 0.0 | 0.00 | 0.00 | 0.00 | 43 | 1012.6 |
| 20260503231342 | 52 | 7 | 0.0 | 0.0 | 0.00 | 0.00 | 0.00 | 44 | 1012.9 |
| 20260503230838 | 53 | 337 | 0.0 | 1.0 | 0.00 | 0.00 | 0.00 | 43 | 1012.7 |
| 20260503230335 | 53 | 7 | 0.0 | 0.0 | 0.00 | 0.00 | 0.00 | 42 | 1012.6 |
| 20260503225833 | 53 | 9 | 1.0 | 1.0 | 0.00 | 0.00 | 0.00 | 40 | 1012.7 |
| 20260503225328 | 53 | 342 | 3.0 | 5.0 | 0.00 | 0.00 | 0.00 | 38 | 1012.8 |
| 20260503224825 | 53 | 14 | 0.0 | 0.0 | 0.00 | 0.00 | 0.00 | 39 | 1012.7 |
| 20260503224322 | 53 | 340 | 1.0 | 3.0 | 0.00 | 0.00 | 0.00 | 39 | 1012.6 |
| 20260503223820 | 54 | 11 | 0.0 | 1.0 | 0.00 | 0.00 | 0.00 | 38 | 1012.5 |
| 20260503223317 | 54 | 352 | 1.0 | 2.0 | 0.00 | 0.00 | 0.00 | 36 | 1012.4 |
| 20260503222813 | 55 | 46 | 0.0 | 0.0 | 0.00 | 0.00 | 0.00 | 37 | 1012.4 |
| 20260503222311 | 56 | 346 | 4.0 | 8.0 | 0.00 | 0.00 | 0.00 | 35 | 1012.5 |
| 20260503221809 | 56 | 326 | 1.0 | 1.0 | 0.00 | 0.00 | 0.00 | 36 | 1012.5 |
| 20260503221308 | 56 | 34 | 0.0 | 0.0 | 0.00 | 0.00 | 0.00 | 39 | 1012.3 |
| 20260503220803 | 56 | 331 | 1.0 | 3.0 | 0.00 | 0.00 | 0.00 | 36 | 1012.3 |
| 20260503220300 | 56 | 47 | 3.0 | 5.0 | 0.00 | 0.00 | 0.00 | 37 | 1012.5 |
| 20260503215757 | 57 | 337 | 2.0 | 3.0 | 0.00 | 0.00 | 0.00 | 37 | 1012.4 |
| 20260503215254 | 56 | 335 | 2.0 | 3.0 | 0.00 | 0.00 | 0.00 | 35 | 1012.4 |
| 20260503214752 | 56 | 7 | 4.0 | 7.0 | 0.00 | 0.00 | 0.00 | 36 | 1012.3 |
| 20260503214249 | 56 | 310 | 1.0 | 2.0 | 0.00 | 0.00 | 0.00 | 38 | 1012.6 |
| 20260503213747 | 55 | 306 | 6.0 | 7.0 | 0.00 | 0.00 | 0.00 | 34 | 1012.6 |
| 20260503213244 | 56 | 319 | 0.0 | 0.0 | 0.00 | 0.00 | 0.00 | 38 | 1012.4 |
| 20260503212740 | 55 | 348 | 1.0 | 2.0 | 0.00 | 0.00 | 0.00 | 39 | 1012.5 |
| 20260503212238 | 57 | 235 | 1.0 | 1.0 | 0.00 | 0.00 | 0.00 | 37 | 1012.0 |
| 20260503211736 | 56 | 336 | 2.0 | 3.0 | 0.00 | 0.00 | 0.00 | 37 | 1012.3 |
| 20260503211231 | 56 | 299 | 3.0 | 5.0 | 0.00 | 0.00 | 0.00 | 38 | 1012.3 |
| 20260503210727 | 57 | 325 | 2.0 | 5.0 | 0.00 | 0.00 | 0.00 | 35 | 1012.6 |
| 20260503210225 | 57 | 307 | 3.0 | 3.0 | 0.00 | 0.00 | 0.00 | 37 | 1012.2 |
| 20260503205720 | 57 | 345 | 2.0 | 3.0 | 0.00 | 0.00 | 0.00 | 38 | 1012.0 |
| 20260503205216 | 57 | 17 | 0.0 | 0.0 | 0.00 | 0.00 | 0.00 | 40 | 1012.3 |
| 20260503204713 | 56 | 313 | 3.0 | 3.0 | 0.00 | 0.00 | 0.00 | 39 | 1012.5 |
| 20260503204211 | 56 | 303 | 3.0 | 3.0 | 0.00 | 0.00 | 0.00 | 39 | 1012.4 |
| 20260503203708 | 57 | 353 | 3.0 | 3.0 | 0.00 | 0.00 | 0.00 | 39 | 1012.5 |
| 20260503203205 | 56 | 79 | 0.0 | 0.0 | 0.00 | 0.00 | 0.00 | 40 | 1012.8 |
| 20260503202702 | 56 | 321 | 2.0 | 2.0 | 0.00 | 0.00 | 0.00 | 42 | 1012.3 |
| 20260503202200 | 56 | 5 | 4.0 | 6.0 | 0.00 | 0.00 | 0.00 | 42 | 1012.6 |
| 20260503201658 | 55 | 26 | 1.0 | 2.0 | 0.00 | 0.00 | 0.00 | 45 | 1012.5 |
| 20260503201155 | 55 | 243 | 6.0 | 7.0 | 0.00 | 0.00 | 0.00 | 40 | 1012.8 |
| 20260503200651 | 54 | 327 | 1.0 | 2.0 | 0.00 | 0.00 | 0.00 | 43 | 1012.6 |
| 20260503200148 | 55 | 357 | 3.0 | 5.0 | 0.00 | 0.00 | 0.00 | 43 | 1013.0 |
| 20260503195644 | 56 | 312 | 5.0 | 7.0 | 0.00 | 0.00 | 0.00 | 43 | 1012.8 |
| 20260503195142 | 57 | 333 | 0.0 | 0.0 | 0.00 | 0.00 | 0.00 | 46 | 1013.0 |
| 20260503194639 | 55 | 43 | 2.0 | 3.0 | 0.00 | 0.00 | 0.00 | 48 | 1012.9 |
| 20260503194134 | 54 | 103 | 0.0 | 0.0 | 0.00 | 0.00 | 0.00 | 43 | 1013.0 |
| 20260503193631 | 55 | 290 | 5.0 | 7.0 | 0.00 | 0.00 | 0.00 | 46 | 1013.0 |
| 20260503193126 | 53 | 9 | 2.0 | 3.0 | 0.00 | 0.00 | 0.00 | 47 | 1013.1 |
| 20260503192622 | 54 | 203 | 1.0 | 2.0 | 0.00 | 0.00 | 0.00 | 45 | 1013.2 |
| 20260503192118 | 51 | 348 | 2.0 | 3.0 | 0.00 | 0.00 | 0.00 | 46 | 1013.4 |
| 20260503191615 | 51 | 209 | 2.0 | 3.0 | 0.00 | 0.00 | 0.00 | 45 | 1013.2 |
| 20260503191112 | 51 | 21 | 0.0 | 0.0 | 0.00 | 0.00 | 0.00 | 48 | 1013.5 |
| 20260503190609 | 51 | 23 | 0.0 | 1.0 | 0.00 | 0.00 | 0.00 | 49 | 1013.5 |
| 20260503190106 | 51 | 333 | 1.0 | 2.0 | 0.00 | 0.00 | 0.00 | 49 | 1013.7 |
| 20260503185603 | 53 | 300 | 5.0 | 8.0 | 0.00 | 0.00 | 0.00 | 44 | 1013.5 |
| 20260503185102 | 51 | 329 | 3.0 | 6.0 | 0.00 | 0.00 | 0.00 | 44 | 1013.6 |
| 20260503184558 | 51 | 341 | 2.0 | 2.0 | 0.00 | 0.00 | 0.00 | 46 | 1013.6 |
| 20260503184055 | 50 | 347 | 1.0 | 2.0 | 0.00 | 0.00 | 0.00 | 48 | 1013.8 |
| 20260503183551 | 50 | 355 | 3.0 | 6.0 | 0.00 | 0.00 | 0.00 | 47 | 1013.9 |
| 20260503183049 | 50 | 350 | 3.0 | 3.0 | 0.00 | 0.00 | 0.00 | 49 | 1013.9 |
| 20260503182547 | 50 | 344 | 3.0 | 5.0 | 0.00 | 0.00 | 0.00 | 46 | 1013.7 |
| 20260503182045 | 50 | 41 | 2.0 | 2.0 | 0.00 | 0.00 | 0.00 | 46 | 1013.8 |
| 20260503181542 | 51 | 323 | 3.0 | 3.0 | 0.00 | 0.00 | 0.00 | 50 | 1013.6 |
| 20260503181038 | 51 | 110 | 3.0 | 6.0 | 0.00 | 0.00 | 0.00 | 45 | 1013.6 |
| 20260503180535 | 51 | 350 | 0.0 | 0.0 | 0.00 | 0.00 | 0.00 | 45 | 1013.6 |
| 20260503180032 | 52 | 325 | 0.0 | 0.0 | 0.00 | 0.00 | 0.00 | 46 | 1013.7 |
| 20260503175530 | 51 | 7 | 4.0 | 6.0 | 0.00 | 0.00 | 0.00 | 45 | 1013.7 |
| 20260503175027 | 50 | 302 | 5.0 | 6.0 | 0.00 | 0.00 | 0.00 | 44 | 1014.1 |
| 20260503174524 | 51 | 20 | 1.0 | 1.0 | 0.00 | 0.00 | 0.00 | 44 | 1014.0 |
| 20260503174020 | 49 | 331 | 5.0 | 6.0 | 0.00 | 0.00 | 0.00 | 47 | 1013.7 |
| 20260503173515 | 48 | 313 | 2.0 | 3.0 | 0.00 | 0.00 | 0.00 | 49 | 1013.9 |
| 20260503173012 | 49 | 337 | 4.0 | 6.0 | 0.00 | 0.00 | 0.00 | 48 | 1013.9 |
| 20260503172510 | 48 | 358 | 0.0 | 0.0 | 0.00 | 0.00 | 0.00 | 50 | 1013.8 |
| 20260503172006 | 49 | 294 | 3.0 | 3.0 | 0.00 | 0.00 | 0.00 | 50 | 1013.7 |
| 20260503171503 | 49 | 354 | 2.0 | 3.0 | 0.00 | 0.00 | 0.00 | 48 | 1013.7 |
| 20260503171001 | 50 | 323 | 2.0 | 2.0 | 0.00 | 0.00 | 0.00 | 50 | 1013.5 |
| 20260503170457 | 50 | 42 | 5.0 | 6.0 | 0.00 | 0.00 | 0.00 | 47 | 1013.9 |
| 20260503150849 | 49 | 29 | 4.0 | 6.0 | 0.00 | 0.00 | 0.00 | 51 | 1014.0 |
| 20260503150345 | 50 | 2 | 2.0 | 2.0 | 0.00 | 0.00 | 0.00 | 53 | 1013.8 |
| 20260503140309 | 44 | 359 | 2.0 | 2.0 | 0.00 | 0.00 | 0.00 | 71 | 1014.6 |
| 20260503131239 | 43 | 12 | 0.0 | 0.0 | 0.00 | 0.00 | 0.00 | 74 | 1014.9 |
| 20260503130737 | 44 | 329 | 0.0 | 1.0 | 0.00 | 0.00 | 0.00 | 75 | 1014.8 |
| 20260503130234 | 44 | 351 | 0.0 | 0.0 | 0.00 | 0.00 | 0.00 | 75 | 1014.3 |
| 20260503120200 | 40 | 339 | 0.0 | 0.0 | 0.00 | 0.00 | 0.00 | 84 | 1014.4 |
| 20260503110627 | 36 | 40 | 0.0 | 0.0 | 0.00 | 0.00 | 0.00 | 99 | 1014.1 |
| 20260503110124 | 35 | 55 | 0.0 | 0.0 | 0.00 | 0.00 | 0.00 | 99 | 1014.1 |
| 20260503081440 | 30 | 49 | 0.0 | 0.0 | 0.00 | 0.00 | 0.00 | 99 | 1014.2 |
| 20260503080937 | 30 | 40 | 0.0 | 0.0 | 0.00 | 0.00 | 0.00 | 99 | 1014.5 |
| 20260503080433 | 30 | 40 | 0.0 | 0.0 | 0.00 | 0.00 | 0.00 | 99 | 1014.5 |
| 20260503072910 | 31 | 40 | 0.0 | 0.0 | 0.00 | 0.00 | 0.00 | 99 | 1014.4 |
| 20260503072407 | 31 | 40 | 0.0 | 0.0 | 0.00 | 0.00 | 0.00 | 98 | 1014.3 |
| 20260503071904 | 31 | 40 | 0.0 | 0.0 | 0.00 | 0.00 | 0.00 | 98 | 1014.3 |
| 20260503071402 | 31 | 40 | 0.0 | 0.0 | 0.00 | 0.00 | 0.00 | 98 | 1014.7 |
| 20260503070857 | 31 | 40 | 0.0 | 0.0 | 0.00 | 0.00 | 0.00 | 98 | 1014.6 |
| 20260503070355 | 32 | 40 | 0.0 | 0.0 | 0.00 | 0.00 | 0.00 | 98 | 1014.6 |
| 20260503060320 | 33 | 40 | 0.0 | 0.0 | 0.00 | 0.00 | 0.00 | 96 | 1015.1 |
| 20260503054808 | 33 | 40 | 0.0 | 0.0 | 0.00 | 0.00 | 0.00 | 96 | 1015.0 |
| 20260503054304 | 33 | 40 | 0.0 | 0.0 | 0.00 | 0.00 | 0.00 | 95 | 1015.1 |
| 20260503053802 | 33 | 40 | 0.0 | 0.0 | 0.00 | 0.00 | 0.00 | 95 | 1015.1 |
| 20260503053301 | 34 | 40 | 0.0 | 0.0 | 0.00 | 0.00 | 0.00 | 95 | 1015.1 |
| 20260503052756 | 34 | 40 | 0.0 | 0.0 | 0.00 | 0.00 | 0.00 | 95 | 1015.2 |
| 20260503052253 | 34 | 40 | 0.0 | 0.0 | 0.00 | 0.00 | 0.00 | 95 | 1015.2 |
| 20260503051749 | 34 | 40 | 0.0 | 0.0 | 0.00 | 0.00 | 0.00 | 95 | 1015.2 |
| 20260503051246 | 34 | 40 | 0.0 | 0.0 | 0.00 | 0.00 | 0.00 | 95 | 1015.5 |